Location: El Águila
(10.4167°N, 66.7167°W)
Time: 05:14:54
(UTC+00:00)

BREEZE-M DEB (TANK) - Pass Details

Date: 02 October 2022
Orbit: 328 x 14767 km, 49.5° (Epoch: 25 November)

Event Time Altitude Azimuth Distance (km) Brightness Sun altitude
Rises 22:49:04 0° 190° (S) 2,151 6.2 -8.8°
Reaches altitude 10° 22:51:21 10° 161° (SSE) 1,245 4.7 -9.4°
Maximum altitude 22:52:50 15° 120° (ESE) 1,077 4.0 -9.7°
Enters shadow 22:53:33 14° 100° (E) 1,194 4.1 -9.9°
